www.pogodaiklimat.ru

Погода и климат >> Архив погоды >> Кувейт >> Эль-Джахра


ПОГОДА в Эль-Джахра

  • Прогноз погоды в Эль-Джахра
  • Монитор погоды в Эль-Джахра

АРХИВ ПОГОДЫ в Эль-Джахра

Время (UTC), дата Ветер
(напр.,м/с)
 
Видим.   Явления Облачность Т
(С)
Тd
(С)
f
(%)
Тe
(С)
Тes
(С)
Комфортность P
(гПа)
Po
(гПа)
Тmin
(С)
Tmax
(С)
R
(мм)
R24
(мм)
S
(см)
06 9.06 З 3-6
{6}
н/о н/о +43.8 +2.3 8 +40 +40 очень
жарко
1003.9 998.0
09 9.06 С 4-9
{9}
н/о н/о +48.4 -4.5 4 +44 +44 опасность
перегрева
1002.1 996.3
12 9.06 СВ 4-7
{10}
н/о н/о +48.7 +3.4 7 +46 +46 опасность
перегрева
1000.5 994.7
15 9.06 СВ 3-4
{7}
н/о н/о +45.3 +3.1 8 +42 +42 опасность
перегрева
1000.3 994.4
18 9.06 Ю 2-2
{7}
н/о н/о +39.2 +2.6 10 +36 +36 очень
жарко
1001.6 995.6
21 9.06 СЗ 1-2
{5}
н/о н/о +39.5 +2.8 10 +36 +36 очень
жарко
1001.3 995.3 +33.9 +49.3
00 10.06 ЮЗ 2-3
{5}
н/о н/о +34.8 +2.5 13 +32 +32 жарко 1001.1 995.0
03 10.06 ЮЗ 1-2
{3}
н/о н/о +33.3 +5.6 18 +31 +31 жарко 1001.7 995.6
06 10.06 З 2-5
{5}
н/о н/о +43.2 +5.3 10 +40 +40 очень
жарко
1002.1 996.2
09 10.06 С 3-5
{6}
н/о н/о +47.9 +0.2 6 +44 +44 опасность
перегрева
1001.0 995.2
12 10.06 С 4-8
{11}
н/о н/о +48.6 -3.7 4 +44 +44 опасность
перегрева
999.5 993.7
15 10.06 СВ 2-5
{8}
н/о н/о +46.3 -2.3 5 +42 +42 опасность
перегрева
999.3 993.4
18 10.06 З 1-1
{8}
н/о н/о +40.1 +5.8 12 +37 +37 очень
жарко
1000.9 994.9
21 10.06 ЮЗ 2-2
{2}
н/о н/о +37.6 -1.3 9 +34 +34 очень
жарко
1000.7 994.7 +32.5 +50.0
00 11.06 ЮЗ 2-4
{4}
н/о н/о +33.3 +1.5 13 +30 +30 жарко 1000.5 994.4
03 11.06 З 3-4
{4}
н/о н/о +34.4 +3.4 14 +31 +31 жарко 1002.0 995.9
06 11.06 З 2-5
{7}
н/о н/о +43.7 +3.2 9 +41 +41 опасность
перегрева
1002.9 997.0
09 11.06 СЗ 3-7
{9}
н/о н/о +47.7 +2.5 7 +44 +44 опасность
перегрева
1001.6 995.7
12 11.06 СЗ 3-6
{9}
н/о н/о +48.9 +1.7 6 +45 +45 опасность
перегрева
999.7 993.9
15 11.06 СЗ 3-8
{9}
н/о н/о +46.9 +1.3 6 +43 +43 опасность
перегрева
999.8 993.9
18 11.06 СЗ 2-6
{9}
н/о н/о +43.2 +2.2 8 +40 +40 очень
жарко
1001.5 995.6
21 11.06 СЗ 4-8
{9}
н/о н/о +40.3 +3.5 10 +37 +37 очень
жарко
1001.6 995.6 +32.1 +49.9
00 12.06 СЗ 3-6
{10}
н/о н/о +37.3 +5.0 14 +35 +35 очень
жарко
1001.2 995.2
03 12.06 СЗ 3-9
{9}
н/о н/о +36.4 +2.9 12 +33 +33 жарко 1002.4 996.3
06 12.06 С 6-10
{11}
н/о н/о +41.5 +0.9 8 +38 +38 очень
жарко
1003.2 997.2
09 12.06 СЗ 4-9
{12}
н/о н/о +46.0 -1.2 6 +42 +42 опасность
перегрева
1002.3 996.4
12 12.06 СЗ 4-10
{12}
н/о н/о +46.6 -2.2 5 +43 +43 опасность
перегрева
1001.0 995.1
15 12.06 СЗ 3-8
{13}
н/о н/о +44.3 -2.1 6 +40 +40 очень
жарко
1001.1 995.2
18 12.06 СЗ 2-6
{13}
н/о н/о +40.0 -1.6 7 +36 +36 очень
жарко
1003.2 997.2
21 12.06 Ю 2-6
{8}
н/о н/о +37.3 -1.7 8 +33 +33 жарко 1003.2 997.1 +35.9 +47.4
00 13.06 СЗ 2-6
{8}
н/о н/о +34.6 +0.4 11 +31 +31 жарко 1002.6 996.5
03 13.06 СЗ 2-5
{6}
н/о н/о +33.5 +1.8 13 +30 +30 жарко 1003.3 997.2
06 13.06 С 7-13
{13}
н/о н/о +40.5 +0.1 8 +37 +37 очень
жарко
1003.7 997.7
09 13.06 С 7-13
{15}
н/о н/о +43.4 -0.2 7 +40 +40 очень
жарко
1002.4 996.5
12 13.06 С 5-10
{15}
н/о н/о +44.6 -0.4 6 +41 +41 опасность
перегрева
1001.1 995.2
15 13.06 С 4-8
{11}
н/о н/о +43.0 -0.4 7 +39 +39 очень
жарко
1001.1 995.2
18 13.06 СЗ 2-4
{11}
н/о н/о +39.8 +0.2 8 +36 +36 очень
жарко
1002.4 996.4
21 13.06 З 1-2
{4}
н/о н/о +35.5 -0.5 10 +32 +32 жарко 1001.9 995.8 +32.9 +45.4
00 14.06 З 2-3
{5}
н/о н/о +35.3 -0.6 10 +32 +32 жарко 1001.1 995.0
03 14.06 СЗ 2-4
{4}
н/о н/о +34.7 +1.1 12 +31 +31 жарко 1001.5 995.4
06 14.06 С 4-7
{7}
н/о н/о +42.2 -4.1 5 +38 +38 очень
жарко
1002.1 996.1
09 14.06 С 4-6
{10}
н/о н/о +44.9 -1.5 6 +41 +41 опасность
перегрева
1001.4 995.5
12 14.06 В 4-8
{10}
н/о н/о +46.8 -1.8 5 +43 +43 опасность
перегрева
999.9 994.0
15 14.06 В 3-5
{8}
н/о н/о +43.5 -0.6 7 +40 +40 очень
жарко
999.7 993.8
18 14.06 Ю 1-1
{8}
н/о н/о +37.9 -0.1 9 +34 +34 очень
жарко
1001.2 995.2
21 14.06 ЮЗ 2-3
{3}
н/о н/о +34.0 -0.9 11 +30 +30 жарко 1000.4 994.3 +31.6 +47.0
00 15.06 ЮЗ 2-3
{3}
н/о н/о +32.8 -1.6 11 +29 +29 жарко 1000.1 994.0
03 15.06 ЮЗ 2-3
{3}
н/о н/о +32.2 -1.2 12 +29 +29 жарко 1000.8 994.7
06 15.06 СЗ 1-3
{5}
н/о н/о +42.6 -0.1 7 +39 +39 очень
жарко
1001.8 995.9
09 15.06 З 3-6
{6}
н/о н/о +46.3 -1.2 5 +42 +42 опасность
перегрева
1000.7 994.8
12 15.06 З 3-6
{9}
н/о н/о +48.7 -4.1 4 +44 +44 опасность
перегрева
999.2 993.4
15 15.06 ЮВ 3-6
{7}
н/о н/о +44.3 +0.7 7 +41 +41 опасность
перегрева
999.1 993.2
18 15.06 Ю 1-2
{7}
н/о н/о +38.8 -1.2 8 +35 +35 очень
жарко
1000.7 994.7
21 15.06 ЮЗ 2-3
{3}
н/о н/о +35.8 -1.0 10 +32 +32 жарко 1000.6 994.5 +31.4 +49.1
00 16.06 ЮЗ 2-3
{5}
н/о н/о +33.9 -1.6 10 +30 +30 жарко 999.8 993.7

 

Местоположение метеостанции Эль-Джахра (Кувейт): широта 29.32 долгота 47.67 высота над уровнем моря 55 м.

В архиве по умолчанию представлена погода в Эль-Джахра за последнюю неделю. Архивные данные за месяц целиком и за предыдущие месяцы, начиная с января 2011 года, Вы можете получить, выбрав интересующий диапазон дат из раскрывающегося списка и нажав кнопку "Ввод!".


*Определитесь, кто Вы:
робот инопланетянин человек

Внимание! Время в таблицах - всемирное. Для получения местного времени необходимо прибавить поправку, которая равна 3 ч.

Смотрите также архив погоды в соседних городах и на ближайших метеорологических станциях:

Погода в Сулайбии (Кувейт) (7 км)
Погода на Экспериментальной ферме (Кувейт) (26 км)
Погода в Минагише (Кувейт) (31 км)
Погода в Эль-Кувейте (Кувейт) (31 км)
Погода на Метеостанции Jal Aliyah (Кувейт) (33 км)
Погода в Кувейт Сити (Кувейт) (37 км)
Погода в Аль-Шуаиба (Кувейт) (42 км)
Погода на Метеостанции Sabriyah (Кувейт) (51 км)
Погода Остров Файлака (Кувейт) (61 км)
Погода на Метеостанции Mintribah (Кувейт) (63 км)

Пояснения к столбцам:

Ветер - указаны скорость ветра в м/с - средняя за 10 мин, порывы в срок и между сроками (в фигурных скобках) и направление, откуда дует ветер: С - северный, СВ - северо-восточный, В - восточный, ЮВ - юго-восточный, Ю - южный, ЮЗ - юго-западный, З - западный, СЗ - северо-западный.
Видимость - горизонтальная дальность видимости в метрах или километрах. При видимости от 1 до 10 км при отсутствии осадков обычно наблюдается дымка, при ухудшении видимости до 1 км и менее - туман. В сухую погоду видимость может ухудшаться дымом, пылью или мглою.
Явления - указаны атмосферные явления, наблюдавшиеся в срок или в последний час перед сроком; фигурными скобками обозначены явления, наблюдавшиеся между сроками (за 1-3 часа до срока); квадратными скобками обозначены град или гололедные отложения с указанием их диаметра в мм.
Облачность - указаны через наклонную черту общая и нижняя облачность в баллах и высота нижней границы облаков в метрах; квадратными скобками обозначены формы облаков: Ci - перистые, Cs - перисто-слоистые, Cc - перисто-кучевые, Ac - высококучевые, As - высокослоистые, Sc - слоисто-кучевые, Ns - слоисто-дождевые, Cu - кучевые, Cb - кучево-дождевые. Подробнее классификацию облаков см. в Атласе облаков (PDF).
T - Температура воздуха - температура, измеренная на высоте 2 м над землей.
Td - Температура точки росы - температура, при понижении до которой содержащийся в воздухе водяной пар достигнет насыщения.
f - Относительная влажность воздуха - влажноcть воздуха, измеренная на высоте 2 м над землей.
Te - Эффективная температура - температура, которую ощущает одетый по сезону человек в тени. Характеристика душности погоды. При расчете учитывается влияние влажности воздуха и скорости ветра на теплоощущения человека.
Tes - Эффективная температура на солнце - температура, которую ощущает человек, с поправкой на солнечный нагрев. Характеристика знойности погоды. Зависит от высоты солнца над горизонтом, облачности и скорости ветра. Ночью, в пасмурную погоду, а также при ветре 12 м/с и более поправка равна нулю.
P - Атмосферное давление - приведенное к уровню моря атмосферное давление.
Po - Атмосферное давление - измеренное на уровне метеостанции атмосферное давление.
Tmin - Минимальная температура - минимум температуры воздуха на высоте 2 м над землей.
Tmax - Максимальная температура - максимум температуры воздуха на высоте 2 м над землей.
R - Количество осадков - Количество выпавших осадков за период времени, мм. При наведении курсора мыши на число - период времени, за который выпало указанное количество осадков.
R24 - Количество осадков - Количество выпавших осадков за 24 часа, мм.
S - Снежный покров - Высота снежного покрова, см. При наведении курсора мыши на число - состояние снежного покрова и степень покрытия местности в баллах.